Home   Weather   Douglas   Past weeks

Flag for Isle of Man Past Weather in Douglas, Isle of Man — Yesterday and Last 2 Weeks

Now
45 °F

Rain. Mostly cloudy.


Feels Like: 39 °F
Forecast: 40 / 46 °F
Wind: 12 mph from Southeast

Location: Isle Of Man / Ronaldsway Airport

Current Time: Feb 23, 2017 at 12:23:04 am

Latest Report: Feb 22, 2017 at 10:50 pm


Visibility: 2 mi

Pressure: 29.45 "Hg

Humidity: 93%

Dew Point: 43 °F

Location of DouglasLocation

Past Weather in Douglas — Graph

°F

Douglas Temperature Yesterday

Maximum temperature yesterday: 50 °F (at 12:50 am)
Minimum temperature yesterday: 45 °F (at 9:20 pm)
Average temperature yesterday: 47 °F

High & Low Weather Summary for the Past Weeks

 TemperatureHumidityPressure
High55 °F (Feb 20, 12:20 pm)100% (Feb 14, 8:20 pm)30.42 "Hg (Feb 14, 8:20 pm)
Low34 °F (Feb 8, 6:50 am)56% (Feb 10, 12:20 pm)29.45 "Hg (Feb 22, 10:50 pm)
Average45 °F83%30.16 "Hg
* Reported Feb 7 10:50 pm — Feb 22 10:50 pm, Douglas, Weather by CustomWeather, © 2017

Note: Actual official high and low records may vary slightly from our data, if they occured in-between our weather recording intervals... More about our weather records

Advertising

Douglas Weather History for the Previous 24 Hours

Scroll right to see more
 ConditionsComfort  
Time TempWeatherWind HumidityBarometerVisibility
10:50 pm
Wed, Feb 22
45 °FRain. Mostly cloudy.12 mph93%29.45 "Hg2 mi
9:50 pm45 °FRain. Passing clouds.3 mph93%29.50 "Hg5 mi
9:20 pm45 °FRain. Mostly cloudy.5 mph93%29.53 "Hg5 mi
8:50 pm46 °FRain. Mostly cloudy.9 mph87%29.56 "Hg6 mi
8:20 pm46 °FRain. Mostly cloudy.10 mph93%29.56 "Hg6 mi
7:50 pm46 °FRain. Mostly cloudy.9 mph87%29.59 "Hg5 mi
7:20 pm46 °FLight rain. Partly cloudy.7 mph87%29.59 "Hg6 mi
6:50 pm46 °FLight rain. Passing clouds.9 mph87%29.62 "Hg5 mi
6:20 pm46 °FPassing clouds.7 mph87%29.62 "HgN/A
5:50 pm48 °FPassing clouds.10 mph82%29.62 "HgN/A
5:20 pm48 °FPartly sunny.6 mph82%29.62 "HgN/A
4:50 pm48 °FPassing clouds.9 mph76%29.62 "HgN/A
4:20 pm48 °FPassing clouds.14 mph76%29.62 "HgN/A
3:50 pm48 °FPassing clouds.14 mph76%29.62 "HgN/A
3:20 pm48 °FScattered clouds.14 mph76%29.65 "HgN/A
2:50 pm48 °FScattered clouds.15 mph76%29.65 "HgN/A
2:20 pm48 °FScattered clouds.15 mph76%29.65 "HgN/A
1:50 pm48 °FScattered clouds.16 mph71%29.65 "HgN/A
1:20 pm48 °FPartly sunny.15 mph71%29.65 "HgN/A
12:50 pm48 °FPartly sunny.12 mph71%29.68 "HgN/A
12:20 pm46 °FPartly sunny.15 mph82%29.68 "HgN/A
11:50 am46 °FScattered clouds.13 mph76%29.68 "HgN/A
11:20 am48 °FScattered clouds.15 mph71%29.68 "HgN/A
10:50 am48 °FScattered clouds.16 mph71%29.68 "HgN/A
10:20 am46 °FPassing clouds.15 mph76%29.68 "HgN/A
9:50 am46 °FPassing clouds.18 mph66%29.65 "HgN/A
9:20 am46 °FPassing clouds.18 mph66%29.65 "HgN/A
8:50 am46 °FPassing clouds.23 mph66%29.68 "HgN/A
8:20 am46 °FScattered clouds.22 mph66%29.65 "HgN/A
6:50 am46 °FPassing clouds.17 mph71%29.65 "HgN/A
6:20 am46 °FPassing clouds.16 mph76%29.65 "HgN/A
5:50 am46 °FPassing clouds.15 mph76%29.65 "HgN/A
5:20 am46 °FPassing clouds.13 mph76%29.65 "HgN/A
4:50 am46 °FPassing clouds.13 mph82%29.65 "HgN/A
2:50 am48 °FPartly cloudy.14 mph76%29.65 "HgN/A
1:50 am50 °FLight rain. Low clouds.17 mph82%29.62 "HgN/A
12:50 am50 °FLight rain. Low clouds.22 mph88%29.62 "HgN/A
Weather by CustomWeather, © 2017

See weather overviewHow to use our weather pages